FENGYUN 1C DEB, 30810

Orbit data source: Space-Track

FENGYUN 1C DEB, 30810 is space debris in SSO originally from a launch on Mon, 10 May 1999 UTC launched from the Taiyaun Space Center, China (TSC). Fengyun 1C debris stems from the Chinese weather satellite Fengyun-1C, which was intentionally destroyed by a Chinese anti-satellite missile in 2007. This event dramatically increased the amount of space debris, with thousands of trackable fragments posing hazards to satellites and human spaceflight. The Fengyun 1C debris cloud has become a focal point in discussions about space sustainability and the need for international regulations to prevent the creation of new debris.

Loading next visibility...
Identifier
30810, 1999-025AUU
Orbit
SSO
Country
Flag of CNCN / PRC
Related business
Manufacturer
Unknown
Mission
Spacecraft
Bus & Motor
Unknown
Mass
Unknown
Launch date (UTC)
1999-05-10 (27 years ago)
Launch vehicle
Unknown
Launch site
Taiyaun Space Center, China (TSC)
Object type
Payload
Rocket body
Debris
Shape & HBR
Unknown shape, 0.1 m
Radar Cross Section
Medium (>0.1 m² and <1 m²)

Expand to show TLE details & history
Last TLE update: 11 hours ago

TLE from 11 hours ago
0 FENGYUN 1C DEB
1 30810U 99025AUU 26165.95617083  .00005138  00000-0  27066-2 0  9996
2 30810  98.6707 334.9581 0173611 254.7293 103.4627 14.06964755969717
Epoch: 2026-06-14T22:56Z
TLE epoch observation values (Epoch: 2026-06-14T22:56:53.159Z)
Latitude
-0.00005°
Longitude
87.48714°
Altitude
904.03 km
Speed
7.384 km/s
True Right ascension
22h 19m 49s
True Declination
0° 00' 00"
Sunlit
Object was in daylight at epoch
Visualization orbit readout
Latitude
Unknown
Longitude
Unknown
Altitude
Unknown
Speed
Unknown
Apparent Right ascension
Unknown
Apparent Declination
Unknown
Sunlit
N/A
Visualization observer readout
Local Sidereal Time
20:34:56
Azimuth
Unknown
Elevation
Unknown
Doppler factor
Unknown
Orbital elements
Apogee altitude
992.733 km
Perigee altitude
741.167 km
Semi-major axis
7,245.087 km
Eccentricity
0.01736
Inclination
98.6707°
RAAN
334.9581°
Arg. of periapsis
254.7293°
True anomaly
105.38738°
Mean anomaly
103.4627°
Eccentric anomaly
104.42605°
Mean motion
3.51947 °/min
Orbital period
102.29 mins
BSTAR
0.0027066
Loading maneuver chart data...
Computing Atmospheric mass density...

Documentation

Showing up to 5 results
|